Regional Weather Roundup
Issued by NWS Kansas City/Pleasant Hill, MO

Home | Current Version | Previous Version | Text Only | Print | Product List | Glossary On
Versions: 1 2 3 4 5 6 7 8 9 10 11 12 13 14 15 16 17 18 19 20 21 22 23 24 25 26 27 28 29 30 31 32 33 34 35 36 37 38 39 40 41 42 43 44 45 46 47 48 49 50
000
ASUS43 KEAX 282211
RWREAX

WEATHER ROUNDUP FOR EASTERN KANSAS AND NORTHWEST MISSOURI
NATIONAL WEATHER SERVICE KANSAS CITY/PLEASANT HILL MO
400 PM CST WED JAN 28 2015

KSZ040-057-103>105-MOZ028-029-037-043-282300-
...KANSAS CITY METROPOLITAN AREA...

CITY           SKY/WX    TMP DP  RH WIND       PRES   REMARKS
K.C. INTL      PTSUNNY   72  38  29 S21G29    29.67F
K.C. DOWNTOWN  PTSUNNY   74  38  27 S18G24    29.68F
LEES SUMMIT    PTSUNNY   72  38  29 S15G24    29.71F
OLATHE - IXD   PTSUNNY   71  38  29 S21G29    29.71F
OLATHE - OJC   PTSUNNY   72  38  29 S17G28    29.70F
LAWRENCE       PTSUNNY   73  37  27 S15       29.69F

$$

MOZ001>008-011>017-020>025-030>033-038>040-044>046-053-054-282300-
...NORTHERN AND CENTRAL MISSOURI...

CITY           SKY/WX    TMP DP  RH WIND       PRES   REMARKS
ST. JOSEPH     PTSUNNY   72  38  29 S16       29.66F
MOSBY          MOCLDY    72  36  26 S13       29.70F
WARRENSBURG    PTSUNNY   68  37  32 SE14      29.76F
WHITEMAN AFB   PTSUNNY   66  42  40 S13G23    29.77F
CLINTON        PTSUNNY   66  43  42 S15G22    29.80F
SEDALIA        PTSUNNY   67  39  35 S17G26    29.81F
WARSAW         NOT AVBL
MARSHALL       PTSUNNY   70  43  37 S16       29.81F
CHILLICOTHE      N/A     66  41  40 S12G22    29.72F
MOBERLY        PTSUNNY   57  36  44 SE15      29.83F
KIRKSVILLE     PTSUNNY   51  40  65 SE15      29.79F

$$

MOZ041-047>049-056>058-063>065-088>090-097-282300-
...EASTERN AND SOUTHERN MISSOURI...

CITY           SKY/WX    TMP DP  RH WIND       PRES   REMARKS
ST. LOUIS INTL PTSUNNY   50  31  48 SE17      30.00F
SPIRIT OF STL  PTSUNNY   53  30  41 SE14G22   29.96F
COLUMBIA       MOSUNNY   60  37  42 S20       29.85F
JEFFERSON CITY SUNNY     62  34  35 SE12G23   29.87F
MEXICO         MOSUNNY   57  43  58 S15       29.88F
HANNIBAL       PTSUNNY   50  30  46 SE10      29.87F
ROLLA          SUNNY     55  34  45 S22       29.91F
LEBANON        SUNNY     57  34  41 S15G25    29.90F
OSAGE BEACH    MOSUNNY   61  34  36 S14G22    29.88F
SPRINGFIELD    MOSUNNY   67  38  34 S16       29.86F
BRANSON        PTSUNNY   68  39  34 S14       29.94F
NEVADA         PTSUNNY   72  39  30 S24G32    29.79F
JOPLIN         PTSUNNY   74  35  24 SW29G37   29.84S
WEST PLAINS    SUNNY     53  33  46 SE13      30.01F

$$

IAZ060-094-KSZ022-034>040-054-083-096-NEZ052-066-093-282300-
...KANSAS...SOUTHEAST NEBRASKA AND IOWA...

CITY           SKY/WX    TMP DP  RH WIND       PRES   REMARKS
TOPEKA         PTSUNNY   73  38  27 SW22G33   29.70R
MANHATTAN      CLOUDY    68  36  30 W15G22    29.72R
EMPORIA        PTSUNNY   70  38  31 W17G31    29.76R
CHANUTE        PTSUNNY   72  40  31 S21G30    29.76F
WICHITA        MOSUNNY   71  33  24 W13       29.81R
OMAHA          PTSUNNY   58  36  43 SW3       29.68R
LINCOLN        MOSUNNY   62  35  36 W14       29.70R
FALLS CITY     PTSUNNY   67  38  34 W12       29.65F
LAMONI         PTSUNNY   59  40  49 SE12G23   29.67F
DES MOINES     CLOUDY    52  37  56 SE14      29.70F

$$




USA.gov is the U.S. government's official web portal to all federal, state and local government web resources and services.